Tracking 22438 objects as of 24-Feb-2021
HD Live streaming from Space Station
objects crossing your sky now

BREEZE-M DEB

Track BREEZE-M DEB now!
10-day predictions


NORAD ID: 36960
Int'l Code: 2006-006CS
Perigee: 538.3 km
Apogee: 14,924.1 km
Inclination: 52.0 °
Period: 277.8 minutes
Semi major axis: 14102 km
RCS: 0.0095 m2 (small)
Launch date: February 28, 2006
Source: Commonwealth of Independent States (former USSR) (CIS)
Launch site: TYURATAM MISSILE AND SPACE COMPLEX (TTMTR)

Note: This is SATELLITE DEBRIS
aabbcc
Your satellite tracking list
Your tracking list is empty




NASA's NSSDC Master Catalog

Two Line Element Set (TLE):
1 36960U 06006CS  12351.88661062  .00001499  00000-0  33033-2 0  9992
2 36960 052.0078 187.7155 5100572 184.5162 217.0794 05.18410259 85546
Source of the keplerian elements: AFSPC